Weather History for Chennai, India

Change the Weather History Date:

Friday, May 10, 2013

  Actual Average Record
Temperature  
Mean Temperature 92 °F -  
Max Temperature 100 °F 96 °F 104 °F (2005)
Min Temperature 83 °F 80 °F 80 °F (1997)
Cooling Degree Days 26    
Growing Degree Days 42 (Base 50)    
Moisture  
Dew Point 78 °F    
Average Humidity 67    
Maximum Humidity 84    
Minimum Humidity 47    
Precipitation  
Precipitation 0.00 in 0.07 in - ()
Sea Level Pressure  
Sea Level Pressure 29.66 in    
Wind  
Wind Speed 7 mph ()    
Max Wind Speed 15 mph    
Max Gust Speed 21 mph    
Visibility 3.8 miles    
Events      
Averages and records for this station are not official NWS values.
T = Trace of Precipitation, MM = Missing Value Source: Averaged Metar Reports

Daily Weather History Graph

Daily Weather History Graph

Search for Another Location

Airport:

Trip Planner

Search our weather history database for the weather conditions in past years. The results will help you decide how hot, cold, wet, or windy it might be!

Date:

Astronomy

May. 10, 2013 Rise Set
Actual Time 5:45 AM IST 6:26 PM IST
Civil Twilight 5:22 AM IST 6:48 PM IST
Nautical Twilight 4:56 AM IST 7:15 PM IST
Astronomical Twilight 4:29 AM IST 7:41 PM IST
Moon 5:49 AM IST (5/10) 6:47 PM IST (5/10)
Length of Visible Light 13h 25m
Length of Day
12h 40m
New Moon, 0% of the Moon is Illuminated
May 10
New Moon
May 18
First Quarter
May 25
Full
Jun 1
Last Quarter
Jun 8
New

Hourly Weather History & Observations

Time (IST) Temp. Heat Index Dew Point Humidity Pressure Visibility Wind Dir Wind Speed Gust Speed Precip Events Conditions
12:10 AM 86.0 °F 101.9 °F 80.6 °F 84% 29.71 in 3.7 mi South 6.9 mph - N/A   Partly Cloudy
12:40 AM 86.0 °F 99.3 °F 78.8 °F 79% 29.68 in 3.7 mi South 8.1 mph - N/A   Partly Cloudy
1:10 AM 86.0 °F 99.3 °F 78.8 °F 79% 29.68 in 3.7 mi SSW 5.8 mph - N/A   Partly Cloudy
1:40 AM 86.0 °F 99.3 °F 78.8 °F 79% 29.68 in 3.7 mi South 6.9 mph - N/A   Partly Cloudy
2:10 AM 86.0 °F 99.3 °F 78.8 °F 79% 29.65 in 3.7 mi South 5.8 mph - N/A   Partly Cloudy
2:30 AM 86 °F - 79 °F 74% 29.70 in 2 mi South 3.5 mph - -   Scattered Clouds
2:40 AM 86.0 °F 99.3 °F 78.8 °F 79% 29.65 in 3.7 mi South 5.8 mph - N/A   Partly Cloudy
3:10 AM 86.0 °F 99.3 °F 78.8 °F 79% 29.65 in 3.7 mi South 5.8 mph - N/A   Partly Cloudy
3:40 AM 86.0 °F 99.3 °F 78.8 °F 79% 29.65 in 3.7 mi SSW 6.9 mph - N/A   Partly Cloudy
4:10 AM 86.0 °F 99.3 °F 78.8 °F 79% 29.65 in 3.7 mi South 6.9 mph - N/A   Partly Cloudy
4:40 AM 84.2 °F 96.1 °F 78.8 °F 84% 29.65 in 3.7 mi South 6.9 mph - N/A   Partly Cloudy
5:10 AM 84.2 °F 96.1 °F 78.8 °F 84% 29.65 in 3.7 mi South 6.9 mph - N/A   Partly Cloudy
5:30 AM 85 °F - 80 °F 80% 29.68 in 2 mi South 2.3 mph - -   Partly Cloudy
5:40 AM 84.2 °F 94.1 °F 77.0 °F 79% 29.65 in 3.7 mi South 4.6 mph - N/A   Partly Cloudy
6:10 AM 84.2 °F 94.1 °F 77.0 °F 79% 29.65 in 3.7 mi South 4.6 mph - N/A   Scattered Clouds
6:40 AM 84.2 °F 94.1 °F 77.0 °F 79% 29.68 in 3.7 mi South 4.6 mph - N/A   Partly Cloudy
7:10 AM 86.0 °F 99.3 °F 78.8 °F 79% 29.68 in 3.7 mi South 6.9 mph - N/A   Partly Cloudy
7:40 AM 87.8 °F 102.5 °F 78.8 °F 75% 29.68 in 3.7 mi South 9.2 mph - N/A   Partly Cloudy
8:10 AM 89.6 °F 104.7 °F 78.8 °F 70% 29.71 in 3.7 mi South 9.2 mph - N/A   Partly Cloudy
8:30 AM 91 °F - 80 °F 64% 29.73 in 6 mi SE 3.5 mph - -   Scattered Clouds
8:40 AM 91.4 °F 107.2 °F 78.8 °F 66% 29.71 in 3.7 mi SSW 9.2 mph - N/A   Partly Cloudy
9:10 AM 91.4 °F 107.2 °F 78.8 °F 66% 29.71 in 3.7 mi SSW 8.1 mph - N/A   Partly Cloudy
9:40 AM 93.2 °F 107.2 °F 77.0 °F 59% 29.71 in 3.7 mi WSW 8.1 mph - N/A   Scattered Clouds
10:10 AM 95.0 °F 109.7 °F 77.0 °F 56% 29.71 in 3.7 mi SSW 6.9 mph - N/A   Scattered Clouds
10:40 AM 96.8 °F 112.2 °F 77.0 °F 53% 29.71 in 3.7 mi SW 5.8 mph - N/A   Scattered Clouds
11:10 AM 98.6 °F 114.4 °F 77.0 °F 50% 29.68 in 3.7 mi SSW 8.1 mph - N/A   Scattered Clouds
11:30 AM 99 °F - 80 °F 47% 29.71 in 6 mi East 9.2 mph - -   Mostly Cloudy
11:40 AM 98.6 °F 111.7 °F 75.2 °F 47% 29.68 in 4.3 mi Variable 3.5 mph - N/A   Scattered Clouds
12:10 PM 98.6 °F 114.4 °F 77.0 °F 50% 29.65 in 4.3 mi East 11.5 mph - N/A   Scattered Clouds
12:40 PM 98.6 °F 117.2 °F 78.8 °F 53% 29.65 in 4.3 mi SE 15.0 mph - N/A   Partly Cloudy
1:10 PM 96.8 °F 112.2 °F 77.0 °F 53% 29.62 in 4.3 mi SE 11.5 mph - N/A   Partly Cloudy
1:40 PM 96.8 °F 112.2 °F 77.0 °F 53% 29.62 in 4.3 mi SE 10.4 mph - N/A   Partly Cloudy
2:10 PM 96.8 °F 112.2 °F 77.0 °F 53% 29.59 in 4.3 mi ESE 10.4 mph - N/A   Partly Cloudy
2:30 PM 98 °F - 80 °F 47% 29.64 in 6 mi SSE 6.9 mph - -   Scattered Clouds
2:40 PM 96.8 °F 112.2 °F 77.0 °F 53% 29.59 in 4.3 mi East 11.5 mph - N/A   Partly Cloudy
3:10 PM 98.6 °F 114.4 °F 77.0 °F 50% 29.59 in 4.3 mi ESE 13.8 mph - N/A   Partly Cloudy
3:40 PM 96.8 °F 112.2 °F 77.0 °F 53% 29.59 in 4.3 mi ESE 9.2 mph 20.7 mph N/A   Partly Cloudy
4:10 PM 96.8 °F 112.2 °F 77.0 °F 53% 29.59 in 4.3 mi SE 11.5 mph - N/A   Partly Cloudy
4:40 PM 95.0 °F 107.4 °F 75.2 °F 53% 29.59 in 3.7 mi SE 8.1 mph - N/A   Partly Cloudy
5:10 PM 95.0 °F 107.4 °F 75.2 °F 53% 29.59 in 3.7 mi SE 11.5 mph - N/A   Partly Cloudy
5:30 PM 94 °F - 76 °F 47% 29.63 in 6 mi SSE 9.2 mph - -   Scattered Clouds
5:40 PM 93.2 °F 102.4 °F 73.4 °F 52% 29.59 in 3.7 mi SE 5.8 mph - N/A   Partly Cloudy
6:10 PM 93.2 °F 102.4 °F 73.4 °F 52% 29.59 in 3.7 mi SE 6.9 mph - N/A   Partly Cloudy
6:40 PM 91.4 °F 100.1 °F 73.4 °F 55% 29.62 in 3.7 mi South 5.8 mph - N/A   Partly Cloudy
7:10 PM 89.6 °F 99.8 °F 75.2 °F 62% 29.62 in 3.7 mi SSE 4.6 mph - N/A   Partly Cloudy
7:40 PM 89.6 °F 102.2 °F 77.0 °F 66% 29.65 in 3.7 mi SSE 8.1 mph - N/A   Partly Cloudy
8:10 PM 89.6 °F 104.7 °F 78.8 °F 70% 29.65 in 3.7 mi SE 8.1 mph - N/A   Partly Cloudy
8:30 PM 90 °F - 82 °F 72% 29.69 in 2 mi SSE 6.9 mph - -   Scattered Clouds
8:40 PM 89.6 °F 104.7 °F 78.8 °F 70% 29.68 in 3.7 mi SSE 9.2 mph - N/A   Partly Cloudy
9:10 PM 87.8 °F 104.9 °F 80.6 °F 79% 29.68 in 3.7 mi South 12.7 mph - N/A   Scattered Clouds
9:40 PM 87.8 °F 104.9 °F 80.6 °F 79% 29.68 in 3.7 mi SSE 10.4 mph - N/A   Scattered Clouds
10:10 PM 87.8 °F 104.9 °F 80.6 °F 79% 29.71 in 3.7 mi South 12.7 mph - N/A   Scattered Clouds
10:40 PM 87.8 °F 104.9 °F 80.6 °F 79% 29.68 in 3.7 mi SSE 13.8 mph - N/A   Scattered Clouds
11:10 PM 86.0 °F 101.9 °F 80.6 °F 84% 29.68 in 3.7 mi South 11.5 mph - N/A   Scattered Clouds
11:30 PM 88 °F - 82 °F 79% 29.72 in 2 mi South 6.9 mph - -   Scattered Clouds
11:40 PM 86.0 °F 101.9 °F 80.6 °F 84% 29.68 in 3.7 mi South 6.9 mph - N/A   Partly Cloudy